Location: Central Falls
(41.8900°N, 71.3929°W)
Time: 13:07:22
(UTC+00:00)

A-11 Canister half - Pass Details

Date: 08 December 2023
Orbit: 1526 x 1682 km, 47.3° (Epoch: 20 February)

Event Time Altitude Azimuth Distance (km) Brightness Sun altitude
Rises 07:39:20 0° 288° (WNW) 4,867 - -47.6°
Reaches altitude 10° 07:44:30 10° 267° (W) 3,843 - -46.7°
Maximum altitude 07:49:01 14° 238° (WSW) 3,475 - -45.9°
Drops below altitude 10° 07:53:30 10° 210° (SSW) 3,775 - -45.1°
Sets 07:58:32 0° 187° (S) 4,723 - -44.1°
